Total_Precipitation_Accumulation
1.78 1.69 1.61 1.52 1.54 1.57 1.59 1.68 1.87 1.82 1.51 1.19 1.12 1.16 1.22 1.25 1.38 1.33 1.25 1.48 1.49 1.47 1.50 1.55 1.58 1.54 1.52 1.58 1.65 1.73 1.86 1.96 2.00 2.03 2.04 1.99 2.01 2.13
1.65 1.66 1.60 1.49 1.48 1.54 1.61 1.66 1.74 1.81 1.65 1.22 1.08 1.13 1.29 1.39 1.55 1.42 1.33 1.56 1.55 1.50 1.48 1.44 1.39 1.36 1.35 1.37 1.45 1.52 1.55 1.58 1.70 1.83 1.95 2.01 2.06 2.19
1.55 1.58 1.58 1.54 1.56 1.58 1.65 1.72 1.78 1.85 1.82 1.43 1.19 1.17 1.28 1.35 1.39 1.33 1.29 1.31 1.32 1.48 1.41 1.31 1.26 1.23 1.22 1.20 1.22 1.29 1.35 1.40 1.46 1.58 1.73 1.85 1.88 1.91
1.50 1.54 1.56 1.57 1.61 1.63 1.71 1.75 1.74 1.72 1.72 1.58 1.33 1.18 1.16 1.17 1.21 1.22 1.20 1.16 1.11 1.29 1.30 1.24 1.18 1.17 1.18 1.17 1.13 1.13 1.19 1.28 1.31 1.34 1.39 1.48 1.56 1.62
1.36 1.42 1.42 1.48 1.54 1.55 1.62 1.68 1.66 1.62 1.60 1.52 1.30 1.12 1.06 1.06 1.15 1.18 1.16 1.11 1.03 1.11 1.16 1.16 1.14 1.13 1.15 1.12 1.11 1.08 1.02 1.02 1.05 1.09 1.14 1.23 1.33 1.41
1.23 1.30 1.35 1.39 1.41 1.45 1.54 1.58 1.57 1.59 1.60 1.57 1.44 1.24 1.09 1.02 1.08 1.12 1.13 1.08 1.00 0.94 1.09 1.11 1.13 1.14 1.12 1.03 0.96 0.96 0.92 0.91 0.96 1.02 1.10 1.15 1.19 1.27
1.22 1.26 1.34 1.51 1.54 1.49 1.48 1.45 1.46 1.53 1.56 1.55 1.43 1.27 1.12 1.04 1.06 1.00 1.00 1.03 1.06 0.98 1.01 1.02 1.00 1.01 1.07 1.11 1.06 1.00 0.99 0.99 1.00 1.04 1.11 1.20 1.24 1.29
1.26 1.23 1.27 1.40 1.40 1.41 1.40 1.39 1.42 1.50 1.53 1.47 1.31 1.12 0.94 0.82 0.83 0.94 1.02 1.13 1.18 0.97 0.96 1.04 1.00 1.05 1.02 1.02 1.13 1.08 1.05 1.09 1.07 1.07 1.07 1.10 1.15 1.21
1.22 1.20 1.15 1.11 1.17 1.04 1.13 1.25 1.30 1.31 1.26 1.19 1.16 0.97 0.85 0.78 0.87 1.03 1.07 1.06 0.95 0.81 0.94 1.14 1.09 1.09 0.99 1.02 1.14 1.07 1.07 1.10 1.10 1.06 1.03 1.03 1.07 1.11
1.06 1.04 1.00 0.94 0.93 0.96 0.98 1.05 1.00 0.98 0.97 0.90 0.86 0.81 0.79 0.85 0.97 1.09 1.18 1.24 1.11 0.99 1.01 1.18 1.07 1.01 0.93 0.94 1.08 1.04 1.04 1.09 1.12 1.12 1.09 1.06 1.05 1.09
0.91 0.89 0.89 0.85 0.96 1.07 1.01 0.97 0.90 0.89 0.95 0.97 0.97 0.97 1.04 1.12 1.19 1.31 1.44 1.59 1.45 1.12 0.96 0.97 0.92 0.88 0.88 0.90 0.96 1.05 1.03 1.06 1.12 1.16 1.16 1.15 1.09 1.08
0.78 0.76 0.85 0.86 0.99 1.10 1.01 0.98 0.92 0.79 0.79 0.89 0.92 0.93 0.92 0.98 1.16 1.17 1.25 1.54 1.43 1.14 0.78 0.80 0.84 0.94 1.18 0.94 0.84 0.88 0.97 1.05 1.06 1.07 1.10 1.15 1.20 1.19
0.81 0.80 0.81 0.92 0.99 1.06 1.07 0.97 0.93 0.90 0.85 0.89 0.93 0.92 0.93 0.95 0.99 1.01 1.07 1.33 1.52 1.21 0.70 0.92 1.16 1.03 1.23 1.01 0.79 0.77 0.80 0.90 1.00 1.04 1.08 1.10 1.17 1.31
0.85 0.82 0.89 1.03 1.09 1.12 1.09 1.04 1.08 1.11 1.00 1.03 1.05 1.01 0.96 0.93 0.89 0.90 0.97 1.01 1.07 1.06 0.81 1.08 1.54 1.30 1.42 1.21 0.83 0.74 0.77 0.80 0.87 0.96 1.00 1.18 1.26 1.30
0.84 0.92 0.99 1.05 1.08 1.09 1.11 1.11 1.06 0.99 1.01 1.07 1.03 0.93 0.85 0.85 0.90 0.98 1.05 1.07 1.05 0.99 0.93 0.96 1.22 1.32 1.59 1.55 1.08 0.76 0.80 0.85 0.84 0.93 1.03 1.12 1.21 1.33
0.90 0.94 0.97 0.97 0.97 0.98 1.04 1.06 1.02 1.00 1.04 1.05 0.99 0.95 0.96 1.02 1.05 1.05 1.14 1.18 1.26 1.16 1.01 0.94 1.02 1.35 1.62 1.33 1.25 1.06 0.87 0.95 0.91 0.98 1.07 1.08 1.06 1.15
1.03 0.99 0.92 0.88 0.89 0.91 0.91 0.93 0.99 1.03 1.07 1.02 1.05 1.10 1.10 1.09 1.08 1.05 1.11 1.20 1.25 1.08 0.98 0.97 1.01 1.13 1.29 1.34 1.34 1.05 0.92 0.96 1.00 1.11 1.25 1.27 1.12 1.09
1.13 1.05 0.91 0.84 0.83 0.84 0.87 0.90 0.93 0.98 1.00 1.05 1.10 1.12 1.16 1.16 1.12 1.08 1.12 1.21 1.20 1.01 0.91 0.90 1.04 1.29 1.33 1.22 1.09 1.02 1.02 1.04 1.04 1.10 1.25 1.46 1.27 1.07
1.00 0.88 0.80 0.80 0.81 0.83 0.86 0.88 0.90 0.90 0.98 1.09 1.15 1.16 1.20 1.21 1.20 1.19 1.17 1.20 1.16 1.05 0.96 0.94 1.12 1.57 1.71 1.20 0.83 0.79 1.02 1.12 1.14 1.23 1.29 1.44 1.45 1.16
0.78 0.74 0.75 0.77 0.82 0.89 0.93 0.95 0.95 0.95 1.00 1.06 1.11 1.16 1.24 1.32 1.29 1.20 1.16 1.19 1.21 1.13 1.06 0.98 1.05 1.40 1.84 1.52 1.13 0.76 0.76 1.04 1.39 1.53 1.34 1.22 1.20 1.12
0.73 0.72 0.77 0.84 0.89 0.94 0.99 1.04 1.08 1.09 1.05 1.11 1.15 1.16 1.23 1.37 1.33 1.17 1.17 1.16 1.23 1.24 1.15 0.95 0.85 1.00 1.42 1.85 1.60 0.95 0.81 0.89 1.19 1.64 1.72 1.68 1.42 1.16
0.83 0.84 0.85 0.88 0.95 1.00 1.04 1.07 1.10 1.09 1.11 1.16 1.18 1.19 1.22 1.34 1.36 1.25 1.24 1.27 1.20 1.13 1.08 0.97 0.97 1.16 1.50 1.84 1.47 0.94 0.83 0.88 0.97 1.07 1.38 1.94 2.44 2.19
0.91 0.94 0.94 0.96 1.00 1.06 1.10 1.10 1.09 1.06 1.07 1.14 1.17 1.18 1.23 1.29 1.24 1.26 1.26 1.29 1.31 1.25 1.21 1.18 1.13 1.19 1.25 1.30 1.32 1.09 0.90 0.85 0.88 0.95 1.05 1.11 1.30 1.51